Retour au catalogue

CE-SAT-IE

ActifScienceSSO
NORAD 58987·PAYLOAD·🇯🇵 Japan

Lancé Feb 17, 2024 depuis Tanegashima Space Center

Loading…

Prochains Passages (prochaines 24 heures)

TLE

FraisSource: Space-Track

Époque: Sep 14, 2026, 08:55 UTC

1 58987U 24032A   26257.37186550  .00000307  00000-0  61383-4 0  9990
2 58987  97.9873 310.0203 0003533 136.9158 223.2325 14.68348758137923

Suivez CE-SAT-IE en temps réel avec AllMySat

Download on the App Store